Weather History for Sheridan, WY

Change the Weather History Date:

Friday, March 21, 2014

  Actual Average Record
Temperature  
Mean Temperature 26 °F 37 °F  
Max Temperature 33 °F 50 °F 76 °F (2009)
Min Temperature 19 °F 24 °F -18 °F (1913)
Degree Days  
Heating Degree Days 39 28  
Month to date heating degree days 674 658  
Since 1 July heating degree days 6424 6193  
Cooling Degree Days 0 0  
Month to date cooling degree days 0 0  
Year to date cooling degree days 0 0  
Moisture  
Dew Point 20 °F    
Average Humidity 70    
Maximum Humidity 92    
Minimum Humidity 47    
Precipitation  
Precipitation 0.06 in 0.03 in 1.76 in (1946)
Month to date precipitation 1.09 0.60  
Year to date precipitation 2.94 1.70  
Sea Level Pressure  
Sea Level Pressure 30.25 in    
Wind  
Wind Speed 15 mph (NNW)    
Max Wind Speed 26 mph    
Max Gust Speed 33 mph    
Visibility 7 miles    
Events Snow    
T = Trace of Precipitation, MM = Missing Value Source: NWS Daily Summary

Daily Weather History Graph

Daily Weather History Graph

Search for Another Location

Airport:

Trip Planner

Search our weather history database for the weather conditions in past years. The results will help you decide how hot, cold, wet, or windy it might be!

Date:

Astronomy

Mar. 21, 2014 Rise Set
Actual Time 7:09 AM MDT 7:21 PM MDT
Civil Twilight 6:39 AM MDT 7:50 PM MDT
Nautical Twilight 6:05 AM MDT 8:25 PM MDT
Astronomical Twilight 5:30 AM MDT 9:00 PM MDT
Moon No Moon Rise 9:51 AM MDT (3/21)
Length of Visible Light 13h 11m
Length of Day
12h 12m
Waning Gibbous, 75% of the Moon is Illuminated
Mar 21
Waning Gibbous
Mar 23
Last Quarter
Mar 30
New
Apr 7
First Quarter
Apr 15
Full

Hourly Weather History & Observations

Time (MDT) Temp. Windchill Dew Point Humidity Pressure Visibility Wind Dir Wind Speed Gust Speed Precip Events Conditions
12:53 AM 33.1 °F 22.2 °F 15.1 °F 48% 30.04 in 10.0 mi NW 17.3 mph - N/A   Overcast
1:53 AM 32.0 °F 20.5 °F 17.1 °F 54% 30.05 in 10.0 mi WNW 18.4 mph - N/A   Mostly Cloudy
2:53 AM 30.9 °F 20.2 °F 19.0 °F 61% 30.09 in 10.0 mi NW 15.0 mph - N/A   Mostly Cloudy
3:53 AM 30.0 °F 19.5 °F 21.9 °F 72% 30.12 in 10.0 mi North 13.8 mph - N/A   Overcast
4:53 AM 28.9 °F 17.3 °F 21.9 °F 75% 30.15 in 10.0 mi NW 16.1 mph - N/A   Scattered Clouds
5:48 AM 28.4 °F 15.4 °F 24.8 °F 86% 30.07 in 3.0 mi NW 19.6 mph 31.1 mph 0.00 in Snow Light Snow
5:53 AM 28.0 °F 13.9 °F 23.0 °F 81% 30.17 in 6.0 mi WNW 23.0 mph 31.1 mph 0.00 in Snow Light Snow
6:53 AM 27.0 °F 13.9 °F 21.9 °F 81% 30.22 in 10.0 mi NW 18.4 mph 25.3 mph 0.00 in   Overcast
7:46 AM 27.0 °F 12.2 °F 21.9 °F 81% 30.15 in 2.0 mi NW 24.2 mph - 0.00 in Snow Light Snow
7:53 AM 27.0 °F 12.2 °F 21.9 °F 81% 30.25 in 2.5 mi NW 24.2 mph - 0.00 in Snow Light Snow
8:01 AM 27.0 °F 12.5 °F 21.9 °F 81% 30.16 in 4.0 mi NW 23.0 mph - 0.00 in Snow Light Snow
8:53 AM 27.0 °F 12.8 °F 21.9 °F 81% 30.28 in 9.0 mi NW 21.9 mph - 0.00 in   Overcast
9:53 AM 28.0 °F 14.9 °F 21.0 °F 75% 30.31 in 10.0 mi NW 19.6 mph - 0.00 in   Overcast
10:53 AM 28.9 °F 16.1 °F 21.0 °F 72% 30.31 in 10.0 mi NW 19.6 mph - N/A   Overcast
11:53 AM 32.0 °F 20.5 °F 21.9 °F 66% 30.30 in 10.0 mi NW 18.4 mph - N/A   Partly Cloudy
12:23 PM 30.0 °F 17.9 °F 19.9 °F 66% 30.21 in 10.0 mi NW 18.4 mph - N/A   Mostly Cloudy
12:53 PM 28.9 °F 16.9 °F 19.9 °F 69% 30.31 in 10.0 mi WNW 17.3 mph - N/A   Mostly Cloudy
1:31 PM 30.0 °F 17.9 °F 19.9 °F 66% 30.21 in 10.0 mi WNW 18.4 mph - N/A   Overcast
1:38 PM 28.9 °F 17.7 °F 19.9 °F 69% 30.21 in 10.0 mi WNW 15.0 mph - N/A   Overcast
1:48 PM 28.4 °F 16.6 °F 19.4 °F 69% 30.21 in 10.0 mi WNW 16.1 mph - N/A   Overcast
1:53 PM 28.9 °F 17.7 °F 19.9 °F 69% 30.31 in 10.0 mi WNW 15.0 mph - N/A   Overcast
2:41 PM 28.9 °F 17.3 °F 21.0 °F 72% 30.20 in 10.0 mi NW 16.1 mph - N/A   Overcast
2:53 PM 28.9 °F 18.6 °F 19.9 °F 69% 30.31 in 10.0 mi NW 12.7 mph - 0.00 in Snow Light Snow
3:25 PM 28.9 °F 17.7 °F 19.9 °F 69% 30.20 in 10.0 mi NW 15.0 mph - 0.00 in   Overcast
3:48 PM 30.2 °F 19.8 °F 19.4 °F 64% 30.20 in 9.0 mi NW 13.8 mph - 0.00 in   Overcast
3:53 PM 30.0 °F 19.1 °F 19.9 °F 66% 30.31 in 10.0 mi NW 15.0 mph - 0.00 in   Overcast
4:05 PM 30.0 °F 19.1 °F 19.9 °F 66% 30.20 in 10.0 mi WNW 15.0 mph - N/A   Overcast
4:53 PM 28.9 °F 18.6 °F 18.0 °F 64% 30.32 in 10.0 mi WNW 12.7 mph - N/A   Overcast
5:07 PM 28.9 °F 19.2 °F 19.0 °F 67% 30.21 in 10.0 mi NW 11.5 mph - N/A   Overcast
5:33 PM 28.9 °F 18.2 °F 19.0 °F 67% 30.21 in 10.0 mi WNW 13.8 mph - N/A   Overcast
5:53 PM 28.0 °F 16.5 °F 19.0 °F 69% 30.34 in 10.0 mi NW 15.0 mph - N/A   Overcast
6:53 PM 27.0 °F 16.7 °F 18.0 °F 69% 30.36 in 6.0 mi NW 11.5 mph - 0.00 in Snow Light Snow
7:20 PM 26.1 °F 14.5 °F 19.0 °F 75% 30.24 in 7.0 mi NNW 13.8 mph - 0.00 in Snow Light Snow
7:50 PM 24.8 °F 14.6 °F 21.2 °F 86% 30.25 in 8.0 mi North 10.4 mph 19.6 mph 0.00 in Snow Light Snow
7:53 PM 24.1 °F 12.5 °F 19.9 °F 84% 30.38 in 8.0 mi North 12.7 mph - 0.00 in Snow Light Snow
8:06 PM 23.0 °F 11.1 °F 19.0 °F 85% 30.25 in 4.0 mi North 12.7 mph - 0.00 in Snow Light Snow
8:10 PM 23.0 °F 13.1 °F 19.0 °F 85% 30.25 in 2.5 mi NNE 9.2 mph - 0.00 in Snow Light Snow
8:16 PM 23.0 °F 12.4 °F 19.0 °F 85% 30.26 in 1.8 mi North 10.4 mph - 0.00 in Snow Light Snow
8:26 PM 23.0 °F 12.4 °F 19.0 °F 85% 30.26 in 1.2 mi North 10.4 mph - 0.00 in Snow Light Snow
8:33 PM 23.0 °F 12.4 °F 19.0 °F 85% 30.26 in 1.2 mi North 10.4 mph - 0.01 in Snow Light Snow
8:53 PM 21.9 °F 11.0 °F 19.0 °F 89% 30.41 in 1.2 mi North 10.4 mph - 0.01 in Snow Light Snow
9:16 PM 21.9 °F 11.0 °F 18.0 °F 85% 30.27 in 1.5 mi North 10.4 mph - 0.01 in Snow Light Snow
9:31 PM 21.9 °F 15.7 °F 18.0 °F 85% 30.27 in 1.8 mi North 4.6 mph 31.1 mph 0.01 in Snow Light Snow
9:53 PM 21.0 °F 11.4 °F 17.1 °F 85% 30.42 in 1.8 mi NNE 8.1 mph - 0.02 in Snow Light Snow
10:01 PM 21.0 °F 10.6 °F 17.1 °F 85% 30.28 in 2.0 mi NNE 9.2 mph - 0.00 in Snow Light Snow
10:17 PM 21.0 °F 10.6 °F 18.0 °F 88% 30.28 in 2.0 mi NE 9.2 mph - 0.00 in Snow Light Snow
10:53 PM 21.0 °F 13.4 °F 17.1 °F 85% 30.43 in 2.0 mi NE 5.8 mph - 0.01 in Snow Light Snow
11:02 PM 21.0 °F 11.4 °F 17.1 °F 85% 30.28 in 1.8 mi NE 8.1 mph - 0.00 in Snow Light Snow
11:38 PM 19.9 °F 11.1 °F 16.0 °F 85% 30.29 in 2.0 mi NE 6.9 mph - 0.01 in Snow Light Snow
11:53 PM 19.9 °F 11.1 °F 16.0 °F 85% 30.42 in 2.5 mi NNE 6.9 mph - 0.01 in Snow Light Snow